When you browse on this site, cookies collect data to enhance your experience and personalize the content and advertising you see.
Visit our Privacy Policy to learn more. By continuing to use the site, you agree to this use of cookies and data.
  • In Germany
  • List of Countries
  • For 7 days
  • Water Temperature
  • Satellite Maps
  • Weather Map
  • Weather Widgets
  • user-avatar
    Login

    Hourly Weather Zaykovo

    Today, 19 February, Tuesday

    Time Temperature Precipitation Wind Pressure Humidity
    00:00 -10°C° 0 mm 2 mps 750 mmHg 90%
    01:00 -12°C° 0 mm 3 mps 749 mmHg 90%
    02:00 -10°C° 0 mm 3 mps 748 mmHg 90%
    03:00 -10°C° 0 mm 3 mps 748 mmHg 89%
    04:00 -10°C° 0 mm 4 mps 747 mmHg 88%
    05:00 -10°C° 0 mm 4 mps 746 mmHg 86%
    06:00 -10°C° 0 mm 5 mps 745 mmHg 83%
    07:00 -10°C° 0 mm 5 mps 745 mmHg 80%
    08:00 -9°C° 0 mm 6 mps 744 mmHg 76%
    09:00 -6°C° 0 mm 5 mps 744 mmHg 75%
    10:00 -4°C° 0 mm 5 mps 743 mmHg 75%
    11:00 -2°C° 0 mm 5 mps 743 mmHg 74%
    12:00 -1°C° 0 mm 4 mps 743 mmHg 77%
    13:00 -1°C° 0 mm 4 mps 742 mmHg 81%
    14:00 +1°C° 0 mm 3 mps 742 mmHg 86%
    15:00 0°C° 0 mm 3 mps 741 mmHg 87%
    16:00 -1°C° 0 mm 3 mps 741 mmHg 88%
    17:00 -1°C° 0 mm 3 mps 740 mmHg 88%
    18:00 -2°C° 0 mm 3 mps 740 mmHg 88%
    19:00 -3°C° 0 mm 4 mps 739 mmHg 87%
    20:00 -4°C° 0 mm 4 mps 739 mmHg 86%
    21:00 -3°C° 0 mm 4 mps 738 mmHg 87%
    22:00 -3°C° 0 mm 4 mps 737 mmHg 88%
    23:00 -2°C° 0 mm 5 mps 737 mmHg 89%

    Tomorrow, 20 February, Wednesday

    Time Temperature Precipitation Wind Pressure Humidity
    00:00 -2°C° 0 mm 4 mps 736 mmHg 89%
    01:00 -2°C° 0 mm 4 mps 735 mmHg 89%
    02:00 -1°C° 0 mm 4 mps 734 mmHg 89%
    03:00 -1°C° 0.1 mm 4 mps 734 mmHg 90%
    04:00 -1°C° 0.1 mm 4 mps 733 mmHg 90%
    05:00 -1°C° 0.1 mm 4 mps 732 mmHg 90%
    06:00 0°C° 0.2 mm 5 mps 732 mmHg 90%
    07:00 0°C° 0.2 mm 5 mps 732 mmHg 91%
    08:00 0°C° 0.2 mm 5 mps 732 mmHg 91%
    09:00 0°C° 0 mm 5 mps 732 mmHg 90%
    10:00 0°C° 0 mm 4 mps 732 mmHg 90%
    11:00 0°C° 0 mm 4 mps 732 mmHg 90%
    12:00 0°C° 0.1 mm 4 mps 732 mmHg 89%
    13:00 0°C° 0.1 mm 5 mps 731 mmHg 89%
    14:00 0°C° 0.1 mm 5 mps 731 mmHg 88%
    15:00 0°C° 0.1 mm 4 mps 731 mmHg 88%
    16:00 0°C° 0.1 mm 4 mps 731 mmHg 88%
    17:00 -1°C° 0.1 mm 4 mps 730 mmHg 88%
    18:00 -1°C° 0.2 mm 4 mps 730 mmHg 88%
    19:00 -1°C° 0.2 mm 4 mps 730 mmHg 89%
    20:00 -1°C° 0.2 mm 4 mps 730 mmHg 89%
    21:00 -1°C° 0.2 mm 4 mps 730 mmHg 89%
    22:00 -1°C° 0.2 mm 4 mps 729 mmHg 89%
    23:00 -1°C° 0.2 mm 4 mps 729 mmHg 89%

    Day after tomorrow, 21 February, Thursday

    Time Temperature Precipitation Wind Pressure Humidity
    00:00 -2°C° 0.1 mm 4 mps 730 mmHg 89%
    01:00 -3°C° 0.1 mm 4 mps 730 mmHg 88%
    02:00 -4°C° 0.1 mm 4 mps 730 mmHg 88%
    03:00 -4°C° 0.1 mm 4 mps 730 mmHg 87%
    04:00 -4°C° 0.1 mm 4 mps 730 mmHg 87%
    05:00 -5°C° 0.1 mm 4 mps 730 mmHg 86%
    06:00 -6°C° 0.1 mm 5 mps 731 mmHg 87%
    07:00 -6°C° 0.1 mm 5 mps 731 mmHg 87%
    08:00 -6°C° 0.1 mm 5 mps 732 mmHg 87%
    09:00 -6°C° 0.3 mm 6 mps 733 mmHg 86%
    10:00 -6°C° 0.3 mm 6 mps 733 mmHg 86%
    11:00 -7°C° 0.3 mm 7 mps 734 mmHg 85%
    12:00 -7°C° 0.1 mm 7 mps 735 mmHg 82%
    13:00 -8°C° 0.1 mm 7 mps 736 mmHg 80%
    14:00 -9°C° 0.1 mm 7 mps 737 mmHg 77%
    15:00 -11°C° 0.1 mm 7 mps 738 mmHg 77%
    16:00 -10°C° 0.1 mm 6 mps 739 mmHg 77%
    17:00 -11°C° 0.1 mm 6 mps 740 mmHg 76%
    18:00 -12°C° 0.1 mm 6 mps 741 mmHg 76%
    19:00 -12°C° 0.1 mm 6 mps 742 mmHg 75%
    20:00 -14°C° 0.1 mm 6 mps 742 mmHg 75%
    21:00 -14°C° 0 mm 6 mps 743 mmHg 74%
    22:00 -14°C° 0 mm 6 mps 743 mmHg 74%
    23:00 -14°C° 0 mm 6 mps 744 mmHg 73%

    22 February, Friday

    Time Temperature Precipitation Wind Pressure Humidity
    00:00 -14°C° 0 mm 6 mps 744 mmHg 73%
    01:00 -15°C° 0 mm 6 mps 745 mmHg 73%
    02:00 -15°C° 0 mm 6 mps 745 mmHg 73%
    03:00 -15°C° 0 mm 7 mps 746 mmHg 73%
    04:00 -15°C° 0 mm 7 mps 746 mmHg 73%
    05:00 -15°C° 0 mm 7 mps 746 mmHg 73%
    06:00 -15°C° 0 mm 7 mps 747 mmHg 73%
    07:00 -15°C° 0 mm 7 mps 747 mmHg 72%
    08:00 -15°C° 0 mm 7 mps 748 mmHg 72%
    09:00 -15°C° 0 mm 7 mps 748 mmHg 71%
    10:00 -16°C° 0 mm 8 mps 748 mmHg 71%
    11:00 -15°C° 0 mm 8 mps 748 mmHg 70%
    12:00 -15°C° 0.1 mm 8 mps 749 mmHg 70%
    13:00 -15°C° 0.1 mm 8 mps 749 mmHg 70%
    14:00 -15°C° 0.1 mm 8 mps 749 mmHg 71%
    15:00 -14°C° 0.1 mm 7 mps 750 mmHg 72%
    16:00 -14°C° 0.1 mm 7 mps 751 mmHg 73%
    17:00 -14°C° 0.1 mm 7 mps 751 mmHg 74%
    18:00 -14°C° 0 mm 6 mps 752 mmHg 75%
    19:00 -15°C° 0 mm 6 mps 752 mmHg 75%
    20:00 -15°C° 0 mm 6 mps 753 mmHg 75%
    21:00 -15°C° 0 mm 6 mps 753 mmHg 76%
    22:00 -15°C° 0 mm 5 mps 754 mmHg 78%
    23:00 -15°C° 0 mm 5 mps 754 mmHg 79%

    23 February, Saturday

    Time Temperature Precipitation Wind Pressure Humidity
    00:00 -15°C° 0 mm 5 mps 755 mmHg 80%
    01:00 -17°C° 0 mm 5 mps 755 mmHg 81%
    02:00 -16°C° 0 mm 4 mps 756 mmHg 83%
    03:00 -16°C° 0 mm 4 mps 756 mmHg 84%
    04:00 -17°C° 0 mm 4 mps 756 mmHg 85%
    05:00 -17°C° 0 mm 4 mps 756 mmHg 86%
    06:00 -17°C° 0 mm 4 mps 756 mmHg 86%
    07:00 -17°C° 0 mm 4 mps 757 mmHg 87%
    08:00 -17°C° 0 mm 3 mps 757 mmHg 87%
    09:00 -16°C° 0 mm 3 mps 757 mmHg 84%
    10:00 -15°C° 0 mm 3 mps 757 mmHg 81%
    11:00 -14°C° 0 mm 3 mps 757 mmHg 78%
    12:00 -13°C° 0 mm 3 mps 757 mmHg 76%
    13:00 -12°C° 0 mm 3 mps 757 mmHg 74%
    14:00 -10°C° 0 mm 2 mps 756 mmHg 72%
    15:00 -10°C° 0 mm 2 mps 756 mmHg 76%
    16:00 -12°C° 0 mm 2 mps 756 mmHg 80%
    17:00 -10°C° 0 mm 1 mps 756 mmHg 84%
    18:00 -10°C° 0 mm 1 mps 756 mmHg 85%
    19:00 -10°C° 0 mm 1 mps 756 mmHg 86%
    20:00 -10°C° 0 mm 1 mps 756 mmHg 87%
    21:00 -10°C° 0 mm 1 mps 756 mmHg 86%
    22:00 -10°C° 0 mm 1 mps 756 mmHg 85%
    23:00 -10°C° 0 mm 0 mps 756 mmHg 85%

    24 February, Sunday

    Time Temperature Precipitation Wind Pressure Humidity
    00:00 -10°C° 0 mm 0 mps 756 mmHg 85%
    01:00 -10°C° 0 mm 0 mps 756 mmHg 85%
    02:00 -10°C° 0 mm 0 mps 757 mmHg 84%
    03:00 -9°C° 0 mm 1 mps 757 mmHg 86%
    04:00 -9°C° 0 mm 1 mps 757 mmHg 87%
    05:00 -9°C° 0 mm 1 mps 757 mmHg 89%
    06:00 -9°C° 0 mm 1 mps 757 mmHg 89%
    07:00 -8°C° 0 mm 1 mps 757 mmHg 90%
    08:00 -8°C° 0 mm 1 mps 758 mmHg 91%
    09:00 -7°C° 0 mm 1 mps 758 mmHg 89%
    10:00 -6°C° 0 mm 1 mps 758 mmHg 88%
    11:00 -4°C° 0 mm 1 mps 758 mmHg 86%
    12:00 -4°C° 0 mm 1 mps 758 mmHg 85%
    13:00 -3°C° 0 mm 1 mps 758 mmHg 84%
    14:00 -2°C° 0 mm 1 mps 758 mmHg 83%
    15:00 -3°C° 0 mm 1 mps 758 mmHg 86%
    16:00 -3°C° 0 mm 1 mps 758 mmHg 89%
    17:00 -3°C° 0 mm 1 mps 758 mmHg 92%
    18:00 -3°C° 0 mm 1 mps 758 mmHg 93%
    19:00 -3°C° 0 mm 1 mps 758 mmHg 94%
    20:00 -3°C° 0 mm 1 mps 758 mmHg 94%
    21:00 -4°C° 0 mm 1 mps 757 mmHg 95%
    22:00 -4°C° 0 mm 1 mps 757 mmHg 95%
    23:00 -4°C° 0 mm 1 mps 757 mmHg 95%
    Show more